THORAD AGENA D DEB, 4777

Orbit data source: Space-Track

THORAD AGENA D DEB, 4777 is space debris in SSO originally from a launch on Wed, 08 Apr 1970 UTC launched from the Air Force Western Test Range (AFWTR). Debris objects in space refer to the collection of defunct objects orbiting the Earth. Examples of debris include non-operational satellites, rocket bodies, and fragments generated from explosions, collisions, or faulty payload assembly.

Loading next visibility...
Identifier
4777, 1970-025DX
Orbit
SSO
Country
Flag of USUS
Related business
Manufacturer
Unknown
Mission
Spacecraft
Bus & Motor
Unknown
Mass
Unknown
Launch date (UTC)
1970-04-08 (56 years ago)
Launch vehicle
Unknown
Launch site
Air Force Western Test Range (AFWTR)
Object type
Payload
Rocket body
Debris
Shape & HBR
Unknown shape, 0.1 m
Radar Cross Section
Small (<0.1 m²)

Expand to show TLE details & history
Last TLE update: 20 hours ago

TLE from 20 hours ago
0 THORAD AGENA D DEB
1 04777U 70025DX  25300.76502781  .00002253  00000-0  18416-2 0  9999
2 04777  99.9389  33.1503 0007567 321.9131 202.8378 13.90797719774713
Epoch: 2025-10-27T18:21Z
TLE epoch observation values (Epoch: 2025-10-27T18:21:38.402Z)
Latitude
15.02461°
Longitude
-95.94021°
Altitude
933.063 km
Speed
7.384 km/s
True Right ascension
14h 23m 19s
True Declination
14° 56' 27"
Sunlit
Object was in daylight at epoch
Visualization orbit readout
Latitude
Unknown
Longitude
Unknown
Altitude
Unknown
Speed
Unknown
Apparent Right ascension
Unknown
Apparent Declination
Unknown
Sunlit
N/A
Visualization observer readout
Local Sidereal Time
09:56:40
Azimuth
Unknown
Elevation
Unknown
Doppler factor
Unknown
Orbital elements
Apogee altitude
928.621 km
Perigee altitude
917.572 km
Semi-major axis
7,301.233 km
Eccentricity
0.00076
Inclination
99.9389°
RAAN
33.1503°
Arg. of periapsis
321.9131°
True anomaly
202.80417°
Mean anomaly
202.8378°
Eccentric anomaly
202.82098°
Mean motion
3.47896 °/min
Orbital period
103.48 mins
BSTAR
0.0018416
Loading maneuver chart data...
Computing Atmospheric mass density...

Documentation

Showing up to 5 results
|